Overview Statistics Trail Chart Weather Telemetry Raw packets
 

This is the latest recevied weather packets stored in our database for station/object N5ATR. If no packets are shown the sender has not sent any weather packets the latest 10 day(s).

<< 87 88 89 90 91 92 93 >>
Time Temp. Humidity Pressure Rain* Wind** Luminosity Snow
1788049246 28.89° C 29% 1021.9 hPa 0 mm - 60 W/m² -
1788048946 28.89° C 29% 1022 hPa 0 mm - 54 W/m² -
1788048642 28.89° C 29% 1021.8 hPa 0 mm - 45 W/m² -
1788048338 28.89° C 29% 1021.7 hPa 0 mm - 43 W/m² -
1788048034 30° C 28% 1021.5 hPa 0 mm - 52 W/m² -
1788047731 30.56° C 27% 1021.8 hPa 0 mm - 99 W/m² -
1788047431 30.56° C 27% 1021.7 hPa 0 mm - 131 W/m² -
1788047126 31.11° C 26% 1021.8 hPa 0 mm - 207 W/m² -
1788046826 30.56° C 26% 1021.8 hPa 0 mm - 227 W/m² -
1788046525 30.56° C 26% 1021.7 hPa 0 mm - 229 W/m² -
1788046221 30° C 27% 1021.5 hPa 0 mm - 101 W/m² -
1788045918 31.11° C 26% 1021.8 hPa 0 mm - 118 W/m² -
1788045614 31.11° C 26% 1021.7 hPa 0 mm - 238 W/m² -
1788045309 31.11° C 26% 1022 hPa 0 mm - 296 W/m² -
1788045004 30.56° C 27% 1021.7 hPa 0 mm - 300 W/m² -
1788044703 31.11° C 27% 1021.8 hPa 0 mm - 314 W/m² -
1788044398 30.56° C 27% 1021.8 hPa 0 mm - 282 W/m² -
1788044093 31.11° C 27% 1021.9 hPa 0 mm - 304 W/m² -
1788043789 31.67° C 27% 1022 hPa 0 mm - 352 W/m² -
1788043489 30.56° C 27% 1022.2 hPa 0 mm - 361 W/m² -
1788043184 31.67° C 26% 1022.2 hPa 0 mm - 374 W/m² -
1788042879 31.67° C 26% 1021.9 hPa 0 mm - 387 W/m² -
1788042578 31.67° C 26% 1022.4 hPa 0 mm - 398 W/m² -
1788042278 31.67° C 27% 1022.4 hPa 0 mm - 411 W/m² -
1788041974 31.67° C 26% 1022.4 hPa 0 mm - 421 W/m² -

* Rain latest hour (hover to see other rain measurements)
** Current wind speed in m/s (hover to see current wind gust speed)